O3B MPOWER F10

Last updated on Wed Jun 24 2026 00:03:26 GMT+0000 (Coordinated Universal Time)

1 64867U 25153B 26173.73881937 -.00000022 00000+0 00000+0 0 9995 2 64867 0.0568 5.1271 0001930 249.5710 105.2789 5.00114920 22311
UTC large
Height (km)
Speed (km/s)
/
Latitude / Longitude
Inclination (degrees)
Orbital Period (minutes)
Azimuth
Elevation
Range (km)
Doppler Factor

Next 0 passes for location: London (51.5072 / 0.1276)

No passes found over London.
O3B MPOWER F10